www.pogodaiklimat.ru

Погода и климат >> Архив погоды >> Аргентина >> Формоса


ПОГОДА в Формосе

  • Прогноз погоды в Формосе
  • Монитор погоды в Формосе

АРХИВ ПОГОДЫ в Формосе

Время (UTC), дата Ветер
(напр.,м/с)
 
Видим.   Явления Облачность Т
(С)
Тd
(С)
f
(%)
Тe
(С)
Тes
(С)
Комфортность P
(гПа)
Po
(гПа)
Тmin
(С)
Tmax
(С)
R
(мм)
R24
(мм)
S
(см)
09 19.04 В 2 20 км 6/6 600 м
[Sc]
+21.3 +18.5 84 +26 +26 душно 1010.4 1003.4
12 19.04 В 3 20 км 9/0
[Ac As]
+23.8 +19.3 76 +29 +30 душно 1011.6 1004.6 +21.2 +25.1
15 19.04 В 3 20 км 9/1 900 м
[Sc Ac As Cs]
+30.6 +21.5 58 +39 +44 очень
душно
1011.3 1004.4
18 19.04 С 5 20 км 10/1 900 м
[Sc Ac trans Cs]
+34.5 +22.4 49 +43 +46 опасность
перегрева
1008.4 1001.6
21 19.04 В 2 20 км 10/0
[Ac As Cs]
+30.9 +24.1 67 +43 +43 опасность
перегрева
1007.7 1000.8
00 20.04 СВ 3 20 км 10/0
[Ac As Cs]
+28.8 +23.5 73 +39 +39 очень
душно
1008.5 1001.6 +23.8 +34.9
03 20.04 В 2 20 км 9/0
[Ac As Cs]
+26.2 +23.5 85 +36 +36 очень
душно
1009.5 1002.6
06 20.04 В 3 20 км 10/0
[Ac As]
+26.3 +23.3 84 +36 +36 очень
душно
1007.9 1001.0
09 20.04 В 3 20 км 10/0
[Ac As]
+25.9 +23.6 87 +35 +35 очень
душно
1008.4 1001.6
12 20.04 СВ 5 20 км 10/1 900 м
[Cu hum Ac As]
+26.2 +23.5 85 +36 +36 очень
душно
1009.7 1002.9 +25.3 +28.8
15 20.04 С 3 20 км 10/1 900 м
[Cu hum Ac As]
+26.5 +24.2 87 +37 +40 очень
душно
1010.1 1003.2
18 20.04 ЮЗ 3 9000 м слаб. дождь 10/4 750 м
[Cb cap As op]
+25.1 +24.4 96 +35 +36 очень
душно
1009.2 1002.2 0.3
21 20.04 ЮВ 2 20 км в посл. час дождь {гроза} 10/4 210 м
[Frnb As op]
+24.6 +24.0 96 +34 +34 очень
душно
1008.0 1001.0
00 21.04 В 5 20 км {гроза, дождь} 10/6 300 м
[Sc Ac As]
+23.8 +22.6 93 +31 +31 очень
душно
1009.7 1002.8 +23.8 +26.7 1
03 21.04 В 5 20 км 10/3 600 м
[Sc Ac As Cs]
+23.8 +21.9 89 +31 +31 очень
душно
1008.7 1001.8
06 21.04 СВ 7 10 км гроза, ливневой дождь 10/6 600 м
[Cb cap As op]
+23.7 +22.1 91 +31 +31 очень
душно
1007.5 1000.6 0.0
09 21.04 ЮВ 2 5000 м гроза, ливневой дождь 10/9 210 м
[Cb cap As op]
+22.7 +22.3 98 +31 +31 очень
душно
1008.4 1001.4
12 21.04 В 3 20 км в посл. час гроза {дождь} 10/6 240 м
[Cb cap As op]
+22.5 +21.9 96 +30 +30 очень
душно
1010.3 1003.4 +22.3 +24.9 5
15 21.04 В 4 8000 м гроза, ливневой дождь 10/6 240 м
[Cb cap As op]
+22.7 +22.1 96 +31 +31 очень
душно
1010.7 1003.8
18 21.04 ЮВ 4 20 км {гроза, дождь} 10/4 360 м
[Sc As op]
+24.9 +22.7 88 +33 +34 очень
душно
1009.4 1002.5 2
21 21.04 В 4 20 км 9/5 500 м
[Sc Ac As]
+24.8 +21.2 80 +31 +31 очень
душно
1009.2 1002.2
00 22.04 Ю 3 20 км 8/5 450 м
[Sc Ac As]
+23.1 +22.4 96 +32 +32 очень
душно
1010.7 1003.7 +22.2 +26.7 0.0
03 22.04 ЮВ 2 20 км 5/3 450 м
[Sc Ac As]
+21.8 +21.5 98 +28 +28 душно 1011.5 1004.5
06 22.04 В 2 20 км 10/10 240 м
[St]
+22.2 +21.9 98 +29 +29 очень
душно
1011.3 1004.4
09 22.04 ЮВ 2 20 км 10/10 240 м
[St]
+21.9 +21.6 98 +28 +28 душно 1010.6 1003.7
12 22.04 Ю 4 20 км 10/10 450 м
[Sc]
+22.6 +21.6 94 +30 +30 очень
душно
1012.5 1005.4 +21.4 +23.1 2
15 22.04 ЮВ 5 20 км 10/10 450 м
[Sc]
+25.7 +21.7 79 +33 +33 очень
душно
1012.4 1005.4
18 22.04 Ю 4 20 км 10/8 600 м
[Sc Ac As]
+26.2 +21.3 74 +33 +34 очень
душно
1011.0 1004.1
21 22.04 Ю 3 20 км 10/4 900 м
[Cu hum Ac As]
+24.9 +21.3 80 +31 +31 очень
душно
1010.9 1004.0
00 23.04 Ю 6 20 км 10/5 660 м
[Sc Ac As Cs]
+23.2 +20.6 85 +31 +31 очень
душно
1012.7 1005.7 +22.6 +27.0
03 23.04 Ю 5 20 км 10/10 240 м
[St]
+21.9 +19.9 88 +28 +28 душно 1014.1 1007.0
06 23.04 Ю 5 20 км 9/6 660 м
[Sc Ac trans]
+21.2 +19.2 88 +26 +26 душно 1014.5 1007.4
09 23.04 Ю 5 20 км 9/5 660 м
[Sc Ac trans]
+20.5 +18.4 88 +24 +24 комфорт 1014.5 1007.4
12 23.04 В 5 20 км ясно +21.9 +19.1 84 +27 +29 душно 1015.3 1008.2 +19.8 +23.4
15 23.04 ЮВ 4 20 км 1/1 540 м
[Cu hum]
+26.8 +21.6 73 +34 +42 очень
душно
1015.3 1008.2
18 23.04 Ю 3 20 км 6/4 900 м
[Cu hum Ac As]
+30.3 +22.5 63 +40 +43 очень
душно
1013.2 1006.2
21 23.04 Ю 5 20 км 4/3 1200 м
[Cu med, cong Ac As]
+27.8 +22.4 72 +36 +36 очень
душно
1012.8 1005.8
00 24.04 Ю 4 20 км 4/3 600 м
[Sc Ac As]
+25.1 +21.5 80 +32 +32 очень
душно
1014.7 1007.7 +21.9 +30.7
03 24.04 ЮВ 4 20 км 3/0
[Ac As]
+23.0 +20.4 85 +30 +30 очень
душно
1015.4 1008.5
06 24.04 ЮВ 3 20 км ясно +22.1 +20.1 88 +28 +28 душно 1015.8 1008.9
09 24.04 ЮВ 3 20 км 3/0
[Ac As]
+21.5 +20.3 93 +27 +27 душно 1015.2 1008.2
12 24.04 В 3 20 км 4/0
[Ac trans Ci sp]
+23.9 +21.4 86 +30 +32 очень
душно
1016.5 1009.4 +21.4 +25.1
15 24.04 В 6 20 км 3/0
[Ac trans Ci sp]
+30.7 +22.4 61 +40 +45 очень
душно
1015.4 1008.5
18 24.04 В 6 20 км 9/5 750 м
[Cu Sc Ac trans Cs]
+31.9 +24.0 63 +44 +45 опасность
перегрева
1012.8 1005.8
21 24.04 В 3 20 км 10/3 900 м
[Cu Sc Ac As Cs]
+29.3 +24.3 75 +41 +41 опасность
перегрева
1012.1 1005.2
00 25.04 С 3 20 км 8/3 1200 м
[Cb calv Ac As]
+27.5 +23.9 81 +38 +38 очень
душно
1011.9 1005.0 +23.9 +32.6
03 25.04 СЗ 2 20 км 9/0
[Ac As]
+25.1 +23.9 93 +34 +34 очень
душно
1012.5 1005.7
06 25.04 З 4 20 км 10/6 600 м
[Sc Ac As]
+24.6 +23.9 96 +34 +34 очень
душно
1012.9 1006.1
09 25.04 ЮЗ 5 20 км в посл. час морось 10/10 300 м
[St]
+22.1 +21.7 98 +29 +29 очень
душно
1013.2 1006.2
12 25.04 Ю 3 20 км {морось} 9/9 450 м
[Sc]
+23.2 +21.9 92 +31 +32 очень
душно
1015.2 1008.2 +22.1 +27.5 0.0
15 25.04 В 3 20 км в посл. час ливневой дождь 8/6 540 м
[Sc Ac As]
+27.7 +22.9 75 +37 +39 очень
душно
1015.7 1008.8
18 25.04 В 5 9000 м гроза, ливневой дождь 9/8 600 м
[Cb cap As op]
+26.5 +24.2 87 +37 +37 очень
душно
1012.3 1005.4 0.0
21 25.04 Ю 2 20 км в посл. час гроза {дождь} 10/8 300 м
[Sc As op]
+24.1 +24.0 99 +33 +33 очень
душно
1013.0 1006.0
00 26.04 Ю 2 4000 м слаб. дождь {гроза} 10/9 210 м
[Frnb As op]
+23.5 +23.2 98 +31 +31 очень
душно
1014.4 1007.4 +23.2 +28.6 36
03 26.04 В 3 20 км гроза без осадков 10/10 210 м
[Cb cap]
+23.2 +22.9 98 +32 +32 очень
душно
1014.8 1007.8

 

Местоположение метеостанции Формоса (Аргентина): широта -26.20 долгота -58.23 высота над уровнем моря 60 м.

В архиве по умолчанию представлена погода в Формосе за последнюю неделю. Архивные данные за месяц целиком и за предыдущие месяцы, начиная с января 2011 года, Вы можете получить, выбрав интересующий диапазон дат из раскрывающегося списка и нажав кнопку "Ввод!".


*Определитесь, кто Вы:
робот инопланетянин человек

Внимание! Время в таблицах - всемирное. Для получения местного времени необходимо прибавить поправку, которая равна -3 ч.

Смотрите также архив погоды в соседних городах и на ближайших метеорологических станциях:

Погода в Пиларе (Парагвай) (73 км)
Погода в Сан Хуан Батистута (Парагвай) (119 км)
Погода в Куйкуйо (Парагвай) (125 км)
Погода в Парагуари (Парагвай) (127 км)
Погода в Асунсьоне (Парагвай) (128 км)
Погода в Корриентесе (Аргентина) (149 км)
Погода в Ресистенсии (Аргентина) (161 км)
Погода в Грал Бругуез (Парагвай) (171 км)
Погода в Вильяррике (Парагвай) (187 км)
Погода в Каасапе (Парагвай) (188 км)

Пояснения к столбцам:

Ветер - указаны скорость ветра в м/с - средняя за 10 мин, порывы в срок и между сроками (в фигурных скобках) и направление, откуда дует ветер: С - северный, СВ - северо-восточный, В - восточный, ЮВ - юго-восточный, Ю - южный, ЮЗ - юго-западный, З - западный, СЗ - северо-западный.
Видимость - горизонтальная дальность видимости в метрах или километрах. При видимости от 1 до 10 км при отсутствии осадков обычно наблюдается дымка, при ухудшении видимости до 1 км и менее - туман. В сухую погоду видимость может ухудшаться дымом, пылью или мглою.
Явления - указаны атмосферные явления, наблюдавшиеся в срок или в последний час перед сроком; фигурными скобками обозначены явления, наблюдавшиеся между сроками (за 1-3 часа до срока); квадратными скобками обозначены град или гололедные отложения с указанием их диаметра в мм.
Облачность - указаны через наклонную черту общая и нижняя облачность в баллах и высота нижней границы облаков в метрах; квадратными скобками обозначены формы облаков: Ci - перистые, Cs - перисто-слоистые, Cc - перисто-кучевые, Ac - высококучевые, As - высокослоистые, Sc - слоисто-кучевые, Ns - слоисто-дождевые, Cu - кучевые, Cb - кучево-дождевые. Подробнее классификацию облаков см. в Атласе облаков (PDF).
T - Температура воздуха - температура, измеренная на высоте 2 м над землей.
Td - Температура точки росы - температура, при понижении до которой содержащийся в воздухе водяной пар достигнет насыщения.
f - Относительная влажность воздуха - влажноcть воздуха, измеренная на высоте 2 м над землей.
Te - Эффективная температура - температура, которую ощущает одетый по сезону человек в тени. Характеристика душности погоды. При расчете учитывается влияние влажности воздуха и скорости ветра на теплоощущения человека.
Tes - Эффективная температура на солнце - температура, которую ощущает человек, с поправкой на солнечный нагрев. Характеристика знойности погоды. Зависит от высоты солнца над горизонтом, облачности и скорости ветра. Ночью, в пасмурную погоду, а также при ветре 12 м/с и более поправка равна нулю.
P - Атмосферное давление - приведенное к уровню моря атмосферное давление.
Po - Атмосферное давление - измеренное на уровне метеостанции атмосферное давление.
Tmin - Минимальная температура - минимум температуры воздуха на высоте 2 м над землей.
Tmax - Максимальная температура - максимум температуры воздуха на высоте 2 м над землей.
R - Количество осадков - Количество выпавших осадков за период времени, мм. При наведении курсора мыши на число - период времени, за который выпало указанное количество осадков.
R24 - Количество осадков - Количество выпавших осадков за 24 часа, мм.
S - Снежный покров - Высота снежного покрова, см. При наведении курсора мыши на число - состояние снежного покрова и степень покрытия местности в баллах.